Home > Weather > Freising > Past weeks

Flag for Germany Past Weather in Freising, Bavaria, Germany — Yesterday and Last 2 Weeks

Now
59 °F

Clear.


Feels Like: 59 °F
Forecast: 60 / 75 °F
Wind: 2 mph from North

Location: Munich / Franz Josef Strauss Airport

Current Time: Jun 30, 2016 at 1:38:08 AM

Latest Report: Jun 30, 2016 at 1:20 AM


Visibility: 10 mi

Pressure: 29.95 "Hg

Humidity: 100%

Dew Point: 59 °F

Location of FreisingLocation

Past Weather in Freising — Graph

°F

Freising Temperature Yesterday

Maximum temperature yesterday: 77 °F (at 3:50 PM)
Minimum temperature yesterday: 55 °F (at 2:20 AM)
Average temperature yesterday: 67 °F

High & Low Weather Summary for the Past Weeks

 TemperatureHumidityPressure
High88 °F (Jun 24, 4:50 PM)100% (Jun 15, 12:20 AM)30.30 "Hg (Jun 15, 12:20 AM)
Low46 °F (Jun 18, 5:20 AM)39% (Jun 28, 5:20 PM)29.56 "Hg (Jun 16, 10:50 AM)
Average64 °F76%30.03 "Hg
* Reported Jun 15 12:20 AM — Jun 30 12:20 AM, Freising, Weather by CustomWeather, © 2016

Note: Actual official high and low records may vary slightly from our data, if they occured in-between our weather recording intervals... More about our weather records

Advertising

Freising Weather History for the Previous 24 Hours

Scroll right to see more
 ConditionsComfort  
Time TempWeatherWind HumidityBarometerVisibility
12:20 AM
Thu, Jun 30
63 °FClear.1 mph88%29.98 "Hg10 mi
11:50 PM
Wed, Jun 29
64 °FClear.1 mph78%29.98 "Hg10 mi
11:20 PM68 °FClear.2 mph73%29.95 "Hg10 mi
10:50 PM64 °FClear.5 mph83%29.95 "Hg10 mi
10:20 PM64 °FClear.5 mph83%29.98 "Hg10 mi
9:50 PM66 °FPassing clouds.5 mph83%29.98 "HgN/A
9:20 PM70 °FSunny.2 mph73%29.98 "Hg10 mi
8:50 PM72 °FSunny.2 mph65%29.95 "Hg10 mi
8:20 PM73 °FPassing clouds.3 mph57%29.95 "HgN/A
7:50 PM75 °FScattered clouds.5 mph57%29.95 "HgN/A
7:20 PM75 °FScattered clouds.1 mph61%29.95 "HgN/A
6:50 PM75 °FPartly sunny.3 mph57%29.95 "HgN/A
6:20 PM75 °FScattered clouds.7 mph61%29.95 "HgN/A
5:50 PM75 °FScattered clouds.2 mph54%29.98 "HgN/A
5:20 PM75 °FScattered clouds.5 mph57%29.98 "HgN/A
4:50 PM77 °FScattered clouds.5 mph54%29.98 "HgN/A
4:20 PM77 °FScattered clouds.6 mph51%29.98 "HgN/A
3:50 PM77 °FScattered clouds.7 mph54%30.01 "HgN/A
3:20 PM75 °FScattered clouds.5 mph54%30.01 "HgN/A
2:50 PM75 °FPartly sunny.5 mph57%30.01 "HgN/A
2:20 PM75 °FPartly sunny.5 mph54%30.01 "HgN/A
1:50 PM73 °FPartly sunny.7 mph57%30.04 "HgN/A
1:20 PM73 °FBroken clouds.7 mph57%30.04 "HgN/A
12:50 PM72 °FBroken clouds.7 mph65%30.04 "HgN/A
12:20 PM73 °FBroken clouds.8 mph61%30.04 "HgN/A
11:50 AM72 °FBroken clouds.6 mph65%30.04 "HgN/A
11:20 AM72 °FBroken clouds.9 mph61%30.04 "HgN/A
10:20 AM72 °FScattered clouds.9 mph61%30.04 "HgN/A
9:50 AM70 °FScattered clouds.10 mph60%30.04 "HgN/A
9:20 AM68 °FScattered clouds.7 mph69%30.04 "HgN/A
8:50 AM68 °FScattered clouds.9 mph73%30.04 "HgN/A
8:20 AM66 °FPassing clouds.8 mph78%30.04 "HgN/A
7:50 AM64 °FSunny.10 mph78%30.01 "Hg10 mi
7:20 AM63 °FSunny.6 mph83%30.01 "Hg10 mi
6:50 AM61 °FSunny.8 mph88%30.01 "Hg10 mi
6:20 AM59 °FSunny.6 mph88%30.01 "Hg10 mi
5:50 AM57 °FClear.5 mph94%30.01 "Hg10 mi
5:20 AM59 °FClear.6 mph88%30.01 "Hg10 mi
4:50 AM59 °FClear.6 mph88%30.01 "Hg10 mi
4:20 AM57 °FClear.3 mph94%29.98 "Hg10 mi
3:50 AM57 °FClear.2 mph94%29.98 "Hg10 mi
3:20 AM57 °FClear.3 mph88%29.98 "Hg10 mi
2:50 AM57 °FClear.2 mph88%29.98 "Hg10 mi
2:20 AM55 °FClear.2 mph94%29.98 "Hg10 mi
1:50 AM57 °FClear.1 mph94%29.98 "Hg10 mi
1:20 AM57 °FClear.2 mph94%30.01 "Hg10 mi
Weather by CustomWeather, © 2016

See weather overviewHow to use our weather pages